Year,Month,Day,Hour,Minute,Value (Times are PST for windgust in km/hr)
2005,11,02,00,00,8.10
2005,11,02,00,01,11.30
2005,11,02,00,02,11.30
2005,11,02,00,03,8.10
2005,11,02,00,04,11.30
2005,11,02,00,05,14.50
2005,11,02,00,06,9.60
2005,11,02,00,07,9.60
2005,11,02,00,08,8.10
2005,11,02,00,09,11.30
2005,11,02,00,10,6.40
2005,11,02,00,11,9.60
2005,11,02,00,12,9.60
2005,11,02,00,13,9.60
2005,11,02,00,14,9.60
2005,11,02,00,15,6.40
2005,11,02,00,16,8.10
2005,11,02,00,17,8.10
2005,11,02,00,18,11.30
2005,11,02,00,19,9.60
2005,11,02,00,20,11.30
2005,11,02,00,21,8.10
2005,11,02,00,22,9.60
2005,11,02,00,23,6.40
2005,11,02,00,24,8.10
2005,11,02,00,25,9.60
2005,11,02,00,26,8.10
2005,11,02,00,27,8.10
2005,11,02,00,28,11.30
2005,11,02,00,29,8.10
2005,11,02,00,30,9.60
2005,11,02,00,31,9.60
2005,11,02,00,32,4.80
2005,11,02,00,33,9.60
2005,11,02,00,34,8.10
2005,11,02,00,35,8.10
2005,11,02,00,36,4.80
2005,11,02,00,37,6.40
2005,11,02,00,38,8.10
2005,11,02,00,39,9.60
2005,11,02,00,40,9.60
2005,11,02,00,41,9.60
2005,11,02,00,42,12.90
2005,11,02,00,43,11.30
2005,11,02,00,44,9.60
2005,11,02,00,45,11.30
2005,11,02,00,46,8.10
2005,11,02,00,47,8.10
2005,11,02,00,48,11.30
2005,11,02,00,49,12.90
2005,11,02,00,50,9.60
2005,11,02,00,51,9.60
2005,11,02,00,52,8.10
2005,11,02,00,53,17.70
2005,11,02,00,54,16.10
2005,11,02,00,55,17.70
2005,11,02,00,56,19.30
2005,11,02,00,57,17.70
2005,11,02,00,58,16.10
2005,11,02,00,59,14.50
2005,11,02,01,00,9.60
2005,11,02,01,01,9.60
2005,11,02,01,02,8.10
2005,11,02,01,03,8.10
2005,11,02,01,04,9.60
2005,11,02,01,05,17.70
2005,11,02,01,06,11.30
2005,11,02,01,07,20.90
2005,11,02,01,08,20.90
2005,11,02,01,09,11.30
2005,11,02,01,10,14.50
2005,11,02,01,11,9.60
2005,11,02,01,12,19.30
2005,11,02,01,13,16.10
2005,11,02,01,14,16.10
2005,11,02,01,15,12.90
2005,11,02,01,16,14.50
2005,11,02,01,17,17.70
2005,11,02,01,18,14.50
2005,11,02,01,19,16.10
2005,11,02,01,20,12.90
2005,11,02,01,21,9.60
2005,11,02,01,22,14.50
2005,11,02,01,23,16.10
2005,11,02,01,24,16.10
2005,11,02,01,25,11.30
2005,11,02,01,26,9.60
2005,11,02,01,27,9.60
2005,11,02,01,28,11.30
2005,11,02,01,29,9.60
2005,11,02,01,30,14.50
2005,11,02,01,31,9.60
2005,11,02,01,32,14.50
2005,11,02,01,33,6.40
2005,11,02,01,34,4.80
2005,11,02,01,35,9.60
2005,11,02,01,36,9.60
2005,11,02,01,37,9.60
2005,11,02,01,38,6.40
2005,11,02,01,39,8.10
2005,11,02,01,40,9.60
2005,11,02,01,41,8.10
2005,11,02,01,42,8.10
2005,11,02,01,43,9.60
2005,11,02,01,44,6.40
2005,11,02,01,45,4.80
2005,11,02,01,46,6.40
2005,11,02,01,47,6.40
2005,11,02,01,48,4.80
2005,11,02,01,49,4.80
2005,11,02,01,50,4.80
2005,11,02,01,51,4.80
2005,11,02,01,52,4.80
2005,11,02,01,53,4.80
2005,11,02,01,54,0.00
2005,11,02,01,55,1.60
2005,11,02,01,56,3.20
2005,11,02,01,57,4.80
2005,11,02,01,58,6.40
2005,11,02,01,59,6.40
2005,11,02,02,00,6.40
2005,11,02,02,01,9.60
2005,11,02,02,02,8.10
2005,11,02,02,03,8.10
2005,11,02,02,04,6.40
2005,11,02,02,05,6.40
2005,11,02,02,06,4.80
2005,11,02,02,07,8.10
2005,11,02,02,08,11.30
2005,11,02,02,09,8.10
2005,11,02,02,10,9.60
2005,11,02,02,11,8.10
2005,11,02,02,12,8.10
2005,11,02,02,13,11.30
2005,11,02,02,14,14.50
2005,11,02,02,15,11.30
2005,11,02,02,16,20.90
2005,11,02,02,17,14.50
2005,11,02,02,18,16.10
2005,11,02,02,19,14.50
2005,11,02,02,20,9.60
2005,11,02,02,21,9.60
2005,11,02,02,22,11.30
2005,11,02,02,23,12.90
2005,11,02,02,24,14.50
2005,11,02,02,25,9.60
2005,11,02,02,26,11.30
2005,11,02,02,27,12.90
2005,11,02,02,28,12.90
2005,11,02,02,29,16.10
2005,11,02,02,30,16.10
2005,11,02,02,31,9.60
2005,11,02,02,32,16.10
2005,11,02,02,33,17.70
2005,11,02,02,34,14.50
2005,11,02,02,35,12.90
2005,11,02,02,36,11.30
2005,11,02,02,37,8.10
2005,11,02,02,38,9.60
2005,11,02,02,39,8.10
2005,11,02,02,40,8.10
2005,11,02,02,41,8.10
2005,11,02,02,42,9.60
2005,11,02,02,43,8.10
2005,11,02,02,44,9.60
2005,11,02,02,45,8.10
2005,11,02,02,46,6.40
2005,11,02,02,47,6.40
2005,11,02,02,48,6.40
2005,11,02,02,49,8.10
2005,11,02,02,50,6.40
2005,11,02,02,51,1.60
2005,11,02,02,52,3.20
2005,11,02,02,53,6.40
2005,11,02,02,54,4.80
2005,11,02,02,55,3.20
2005,11,02,02,56,6.40
2005,11,02,02,57,6.40
2005,11,02,02,58,4.80
2005,11,02,02,59,4.80
2005,11,02,03,00,4.80
2005,11,02,03,01,4.80
2005,11,02,03,02,3.20
2005,11,02,03,03,0.00
2005,11,02,03,04,1.60
2005,11,02,03,05,0.00
2005,11,02,03,06,3.20
2005,11,02,03,07,3.20
2005,11,02,03,08,1.60
2005,11,02,03,09,1.60
2005,11,02,03,10,1.60
2005,11,02,03,11,1.60
2005,11,02,03,12,3.20
2005,11,02,03,13,3.20
2005,11,02,03,14,3.20
2005,11,02,03,15,4.80
2005,11,02,03,16,4.80
2005,11,02,03,17,4.80
2005,11,02,03,18,4.80
2005,11,02,03,19,9.60
2005,11,02,03,20,8.10
2005,11,02,03,21,6.40
2005,11,02,03,22,8.10
2005,11,02,03,23,6.40
2005,11,02,03,24,4.80
2005,11,02,03,25,6.40
2005,11,02,03,26,6.40
2005,11,02,03,27,6.40
2005,11,02,03,28,6.40
2005,11,02,03,29,4.80
2005,11,02,03,30,4.80
2005,11,02,03,31,4.80
2005,11,02,03,32,4.80
2005,11,02,03,33,3.20
2005,11,02,03,34,1.60
2005,11,02,03,35,0.00
2005,11,02,03,36,0.00
2005,11,02,03,37,4.80
2005,11,02,03,38,4.80
2005,11,02,03,39,3.20
2005,11,02,03,40,8.10
2005,11,02,03,41,8.10
2005,11,02,03,42,4.80
2005,11,02,03,43,4.80
2005,11,02,03,44,8.10
2005,11,02,03,45,4.80
2005,11,02,03,46,4.80
2005,11,02,03,47,4.80
2005,11,02,03,48,4.80
2005,11,02,03,49,4.80
2005,11,02,03,50,4.80
2005,11,02,03,51,3.20
2005,11,02,03,52,3.20
2005,11,02,03,53,3.20
2005,11,02,03,54,3.20
2005,11,02,03,55,4.80
2005,11,02,03,56,6.40
2005,11,02,03,57,4.80
2005,11,02,03,58,3.20
2005,11,02,03,59,6.40
2005,11,02,04,00,4.80
2005,11,02,04,01,3.20
2005,11,02,04,02,3.20
2005,11,02,04,03,0.00
2005,11,02,04,04,0.00
2005,11,02,04,05,1.60
2005,11,02,04,06,3.20
2005,11,02,04,07,1.60
2005,11,02,04,08,0.00
2005,11,02,04,09,0.00
2005,11,02,04,10,0.00
2005,11,02,04,11,0.00
2005,11,02,04,12,0.00
2005,11,02,04,13,0.00
2005,11,02,04,14,0.00
2005,11,02,04,15,0.00
2005,11,02,04,16,0.00
2005,11,02,04,17,0.00
2005,11,02,04,18,0.00
2005,11,02,04,19,0.00
2005,11,02,04,20,3.20
2005,11,02,04,21,4.80
2005,11,02,04,22,3.20
2005,11,02,04,23,0.00
2005,11,02,04,24,1.60
2005,11,02,04,25,6.40
2005,11,02,04,26,8.10
2005,11,02,04,27,6.40
2005,11,02,04,28,4.80
2005,11,02,04,29,8.10
2005,11,02,04,30,6.40
2005,11,02,04,31,6.40
2005,11,02,04,32,6.40
2005,11,02,04,33,4.80
2005,11,02,04,34,6.40
2005,11,02,04,35,6.40
2005,11,02,04,36,4.80
2005,11,02,04,37,1.60
2005,11,02,04,38,0.00
2005,11,02,04,39,1.60
2005,11,02,04,40,0.00
2005,11,02,04,41,0.00
2005,11,02,04,42,3.20
2005,11,02,04,43,3.20
2005,11,02,04,44,3.20
2005,11,02,04,45,1.60
2005,11,02,04,46,3.20
2005,11,02,04,47,3.20
2005,11,02,04,48,3.20
2005,11,02,04,49,3.20
2005,11,02,04,50,0.00
2005,11,02,04,51,0.00
2005,11,02,04,52,0.00
2005,11,02,04,53,0.00
2005,11,02,04,54,0.00
2005,11,02,04,55,0.00
2005,11,02,04,56,0.00
2005,11,02,04,57,0.00
2005,11,02,04,58,1.60
2005,11,02,04,59,1.60
2005,11,02,05,00,3.20
2005,11,02,05,01,4.80
2005,11,02,05,02,6.40
2005,11,02,05,03,4.80
2005,11,02,05,04,3.20
2005,11,02,05,05,4.80
2005,11,02,05,06,3.20
2005,11,02,05,07,4.80
2005,11,02,05,08,3.20
2005,11,02,05,09,4.80
2005,11,02,05,10,3.20
2005,11,02,05,11,1.60
2005,11,02,05,12,0.00
2005,11,02,05,13,3.20
2005,11,02,05,14,4.80
2005,11,02,05,15,4.80
2005,11,02,05,16,4.80
2005,11,02,05,17,4.80
2005,11,02,05,18,3.20
2005,11,02,05,19,4.80
2005,11,02,05,20,4.80
2005,11,02,05,21,1.60
2005,11,02,05,22,3.20
2005,11,02,05,23,3.20
2005,11,02,05,24,4.80
2005,11,02,05,25,6.40
2005,11,02,05,26,4.80
2005,11,02,05,27,4.80
2005,11,02,05,28,0.00
2005,11,02,05,29,0.00
2005,11,02,05,30,1.60
2005,11,02,05,31,6.40
2005,11,02,05,32,4.80
2005,11,02,05,33,4.80
2005,11,02,05,34,6.40
2005,11,02,05,35,4.80
2005,11,02,05,36,4.80
2005,11,02,05,37,4.80
2005,11,02,05,38,3.20
2005,11,02,05,39,4.80
2005,11,02,05,40,4.80
2005,11,02,05,41,4.80
2005,11,02,05,42,4.80
2005,11,02,05,43,3.20
2005,11,02,05,44,4.80
2005,11,02,05,45,8.10
2005,11,02,05,46,3.20
2005,11,02,05,47,6.40
2005,11,02,05,48,8.10
2005,11,02,05,49,6.40
2005,11,02,05,50,6.40
2005,11,02,05,51,6.40
2005,11,02,05,52,6.40
2005,11,02,05,53,4.80
2005,11,02,05,54,4.80
2005,11,02,05,55,1.60
2005,11,02,05,56,4.80
2005,11,02,05,57,3.20
2005,11,02,05,58,3.20
2005,11,02,05,59,4.80
2005,11,02,06,00,4.80
2005,11,02,06,01,6.40
2005,11,02,06,02,6.40
2005,11,02,06,03,4.80
2005,11,02,06,04,4.80
2005,11,02,06,05,4.80
2005,11,02,06,06,4.80
2005,11,02,06,07,4.80
2005,11,02,06,08,4.80
2005,11,02,06,09,4.80
2005,11,02,06,10,8.10
2005,11,02,06,11,6.40
2005,11,02,06,12,4.80
2005,11,02,06,13,4.80
2005,11,02,06,14,3.20
2005,11,02,06,15,0.00
2005,11,02,06,16,3.20
2005,11,02,06,17,3.20
2005,11,02,06,18,3.20
2005,11,02,06,19,4.80
2005,11,02,06,20,4.80
2005,11,02,06,21,4.80
2005,11,02,06,22,4.80
2005,11,02,06,23,4.80
2005,11,02,06,24,4.80
2005,11,02,06,25,3.20
2005,11,02,06,26,3.20
2005,11,02,06,27,6.40
2005,11,02,06,28,6.40
2005,11,02,06,29,8.10
2005,11,02,06,30,8.10
2005,11,02,06,31,3.20
2005,11,02,06,32,3.20
2005,11,02,06,33,4.80
2005,11,02,06,34,3.20
2005,11,02,06,35,4.80
2005,11,02,06,36,3.20
2005,11,02,06,37,4.80
2005,11,02,06,38,1.60
2005,11,02,06,39,3.20
2005,11,02,06,40,3.20
2005,11,02,06,41,4.80
2005,11,02,06,42,4.80
2005,11,02,06,43,6.40
2005,11,02,06,44,6.40
2005,11,02,06,45,4.80
2005,11,02,06,46,8.10
2005,11,02,06,47,8.10
2005,11,02,06,48,6.40
2005,11,02,06,49,6.40
2005,11,02,06,50,8.10
2005,11,02,06,51,8.10
2005,11,02,06,52,6.40
2005,11,02,06,53,6.40
2005,11,02,06,54,9.60
2005,11,02,06,55,4.80
2005,11,02,06,56,3.20
2005,11,02,06,57,6.40
2005,11,02,06,58,8.10
2005,11,02,06,59,8.10
2005,11,02,07,00,6.40
2005,11,02,07,01,8.10
2005,11,02,07,02,14.50
2005,11,02,07,03,8.10
2005,11,02,07,04,9.60
2005,11,02,07,05,8.10
2005,11,02,07,06,8.10
2005,11,02,07,07,9.60
2005,11,02,07,08,9.60
2005,11,02,07,09,9.60
2005,11,02,07,10,6.40
2005,11,02,07,11,11.30
2005,11,02,07,12,9.60
2005,11,02,07,13,11.30
2005,11,02,07,14,6.40
2005,11,02,07,15,9.60
2005,11,02,07,16,8.10
2005,11,02,07,17,4.80
2005,11,02,07,18,8.10
2005,11,02,07,19,6.40
2005,11,02,07,20,4.80
2005,11,02,07,21,6.40
2005,11,02,07,22,8.10
2005,11,02,07,23,8.10
2005,11,02,07,24,8.10
2005,11,02,07,25,4.80
2005,11,02,07,26,8.10
2005,11,02,07,27,9.60
2005,11,02,07,28,8.10
2005,11,02,07,29,8.10
2005,11,02,07,30,8.10
2005,11,02,07,31,9.60
2005,11,02,07,32,4.80
2005,11,02,07,33,4.80
2005,11,02,07,34,6.40
2005,11,02,07,35,8.10
2005,11,02,07,36,6.40
2005,11,02,07,37,9.60
2005,11,02,07,38,8.10
2005,11,02,07,39,6.40
2005,11,02,07,40,6.40
2005,11,02,07,41,6.40
2005,11,02,07,42,9.60
2005,11,02,07,43,14.50
2005,11,02,07,44,9.60
2005,11,02,07,45,9.60
2005,11,02,07,46,6.40
2005,11,02,07,47,8.10
2005,11,02,07,48,8.10
2005,11,02,07,49,6.40
2005,11,02,07,50,4.80
2005,11,02,07,51,4.80
2005,11,02,07,52,8.10
2005,11,02,07,53,16.10
2005,11,02,07,54,6.40
2005,11,02,07,55,14.50
2005,11,02,07,56,8.10
2005,11,02,07,57,8.10
2005,11,02,07,58,4.80
2005,11,02,07,59,8.10
2005,11,02,08,00,6.40
2005,11,02,08,01,6.40
2005,11,02,08,02,4.80
2005,11,02,08,03,6.40
2005,11,02,08,04,1.60
2005,11,02,08,05,1.60
2005,11,02,08,06,3.20
2005,11,02,08,07,3.20
2005,11,02,08,08,1.60
2005,11,02,08,09,4.80
2005,11,02,08,10,1.60
2005,11,02,08,11,0.00
2005,11,02,08,12,1.60
2005,11,02,08,13,0.00
2005,11,02,08,14,6.40
2005,11,02,08,15,6.40
2005,11,02,08,16,4.80
2005,11,02,08,17,6.40
2005,11,02,08,18,6.40
2005,11,02,08,19,9.60
2005,11,02,08,20,12.90
2005,11,02,08,21,9.60
2005,11,02,08,22,8.10
2005,11,02,08,23,6.40
2005,11,02,08,24,6.40
2005,11,02,08,25,6.40
2005,11,02,08,26,3.20
2005,11,02,08,27,3.20
2005,11,02,08,28,3.20
2005,11,02,08,29,3.20
2005,11,02,08,30,3.20
2005,11,02,08,31,1.60
2005,11,02,08,32,1.60
2005,11,02,08,33,3.20
2005,11,02,08,34,0.00
2005,11,02,08,35,3.20
2005,11,02,08,36,1.60
2005,11,02,08,37,0.00
2005,11,02,08,38,0.00
2005,11,02,08,39,0.00
2005,11,02,08,40,1.60
2005,11,02,08,41,3.20
2005,11,02,08,42,1.60
2005,11,02,08,43,3.20
2005,11,02,08,44,3.20
2005,11,02,08,45,4.80
2005,11,02,08,46,4.80
2005,11,02,08,47,4.80
2005,11,02,08,48,4.80
2005,11,02,08,49,4.80
2005,11,02,08,50,1.60
2005,11,02,08,51,3.20
2005,11,02,08,52,1.60
2005,11,02,08,53,4.80
2005,11,02,08,54,6.40
2005,11,02,08,55,4.80
2005,11,02,08,56,4.80
2005,11,02,08,57,4.80
2005,11,02,08,58,3.20
2005,11,02,08,59,3.20
2005,11,02,09,00,3.20
2005,11,02,09,01,4.80
2005,11,02,09,02,3.20
2005,11,02,09,03,4.80
2005,11,02,09,04,4.80
2005,11,02,09,05,1.60
2005,11,02,09,06,4.80
2005,11,02,09,07,3.20
2005,11,02,09,08,3.20
2005,11,02,09,09,3.20
2005,11,02,09,10,3.20
2005,11,02,09,11,3.20
2005,11,02,09,12,4.80
2005,11,02,09,13,6.40
2005,11,02,09,14,4.80
2005,11,02,09,15,4.80
2005,11,02,09,16,4.80
2005,11,02,09,17,4.80
2005,11,02,09,18,4.80
2005,11,02,09,19,4.80
2005,11,02,09,20,0.00
2005,11,02,09,21,1.60
2005,11,02,09,22,0.00
2005,11,02,09,23,3.20
2005,11,02,09,24,4.80
2005,11,02,09,25,4.80
2005,11,02,09,26,8.10
2005,11,02,09,27,6.40
2005,11,02,09,28,6.40
2005,11,02,09,29,8.10
2005,11,02,09,30,8.10
2005,11,02,09,31,6.40
2005,11,02,09,32,6.40
2005,11,02,09,33,8.10
2005,11,02,09,34,14.50
2005,11,02,09,35,8.10
2005,11,02,09,36,8.10
2005,11,02,09,37,8.10
2005,11,02,09,38,9.60
2005,11,02,09,39,4.80
2005,11,02,09,40,4.80
2005,11,02,09,41,8.10
2005,11,02,09,42,9.60
2005,11,02,09,43,3.20
2005,11,02,09,44,9.60
2005,11,02,09,45,8.10
2005,11,02,09,46,8.10
2005,11,02,09,47,6.40
2005,11,02,09,48,6.40
2005,11,02,09,49,6.40
2005,11,02,09,50,3.20
2005,11,02,09,51,4.80
2005,11,02,09,52,9.60
2005,11,02,09,53,9.60
2005,11,02,09,54,8.10
2005,11,02,09,55,6.40
2005,11,02,09,56,4.80
2005,11,02,09,57,4.80
2005,11,02,09,58,6.40
2005,11,02,09,59,6.40
2005,11,02,10,00,6.40
2005,11,02,10,01,6.40
2005,11,02,10,02,4.80
2005,11,02,10,03,3.20
2005,11,02,10,04,3.20
2005,11,02,10,05,4.80
2005,11,02,10,06,4.80
2005,11,02,10,07,3.20
2005,11,02,10,08,8.10
2005,11,02,10,09,6.40
2005,11,02,10,10,4.80
2005,11,02,10,11,3.20
2005,11,02,10,12,6.40
2005,11,02,10,13,4.80
2005,11,02,10,14,4.80
2005,11,02,10,15,4.80
2005,11,02,10,16,6.40
2005,11,02,10,17,8.10
2005,11,02,10,18,9.60
2005,11,02,10,19,9.60
2005,11,02,10,20,6.40
2005,11,02,10,21,4.80
2005,11,02,10,22,6.40
2005,11,02,10,23,9.60
2005,11,02,10,24,11.30
2005,11,02,10,25,8.10
2005,11,02,10,26,6.40
2005,11,02,10,27,3.20
2005,11,02,10,28,4.80
2005,11,02,10,29,9.60
2005,11,02,10,30,9.60
2005,11,02,10,31,6.40
2005,11,02,10,32,6.40
2005,11,02,10,33,6.40
2005,11,02,10,34,4.80
2005,11,02,10,35,4.80
2005,11,02,10,36,1.60
2005,11,02,10,37,0.00
2005,11,02,10,38,3.20
2005,11,02,10,39,3.20
2005,11,02,10,40,0.00
2005,11,02,10,41,3.20
2005,11,02,10,42,4.80
2005,11,02,10,43,3.20
2005,11,02,10,44,4.80
2005,11,02,10,45,4.80
2005,11,02,10,46,3.20
2005,11,02,10,47,1.60
2005,11,02,10,48,3.20
2005,11,02,10,49,4.80
2005,11,02,10,50,4.80
2005,11,02,10,51,3.20
2005,11,02,10,52,6.40
2005,11,02,10,53,6.40
2005,11,02,10,54,4.80
2005,11,02,10,55,4.80
2005,11,02,10,56,3.20
2005,11,02,10,57,3.20
2005,11,02,10,58,3.20
2005,11,02,10,59,4.80
2005,11,02,11,00,4.80
2005,11,02,11,01,6.40
2005,11,02,11,02,3.20
2005,11,02,11,03,1.60
2005,11,02,11,04,4.80
2005,11,02,11,05,4.80
2005,11,02,11,06,0.00
2005,11,02,11,07,3.20
2005,11,02,11,08,1.60
2005,11,02,11,09,4.80
2005,11,02,11,10,6.40
2005,11,02,11,11,6.40
2005,11,02,11,12,6.40
2005,11,02,11,13,4.80
2005,11,02,11,14,6.40
2005,11,02,11,15,9.60
2005,11,02,11,16,11.30
2005,11,02,11,17,11.30
2005,11,02,11,18,9.60
2005,11,02,11,19,9.60
2005,11,02,11,20,9.60
2005,11,02,11,21,6.40
2005,11,02,11,22,8.10
2005,11,02,11,23,9.60
2005,11,02,11,24,6.40
2005,11,02,11,25,8.10
2005,11,02,11,26,11.30
2005,11,02,11,27,11.30
2005,11,02,11,28,12.90
2005,11,02,11,29,9.60
2005,11,02,11,30,9.60
2005,11,02,11,31,14.50
2005,11,02,11,32,17.70
2005,11,02,11,33,9.60
2005,11,02,11,34,9.60
2005,11,02,11,35,9.60
2005,11,02,11,36,9.60
2005,11,02,11,37,14.50
2005,11,02,11,38,6.40
2005,11,02,11,39,8.10
2005,11,02,11,40,11.30
2005,11,02,11,41,11.30
2005,11,02,11,42,16.10
2005,11,02,11,43,12.90
2005,11,02,11,44,11.30
2005,11,02,11,45,8.10
2005,11,02,11,46,4.80
2005,11,02,11,47,11.30
2005,11,02,11,48,14.50
2005,11,02,11,49,8.10
2005,11,02,11,50,9.60
2005,11,02,11,51,8.10
2005,11,02,11,52,8.10
2005,11,02,11,53,9.60
2005,11,02,11,54,11.30
2005,11,02,11,55,9.60
2005,11,02,11,56,9.60
2005,11,02,11,57,12.90
2005,11,02,11,58,8.10
2005,11,02,11,59,6.40
2005,11,02,12,00,4.80
2005,11,02,12,01,4.80
2005,11,02,12,02,3.20
2005,11,02,12,03,9.60
2005,11,02,12,04,11.30
2005,11,02,12,05,11.30
2005,11,02,12,06,6.40
2005,11,02,12,07,9.60
2005,11,02,12,08,6.40
2005,11,02,12,09,6.40
2005,11,02,12,10,6.40
2005,11,02,12,11,9.60
2005,11,02,12,12,6.40
2005,11,02,12,13,14.50
2005,11,02,12,14,14.50
2005,11,02,12,15,11.30
2005,11,02,12,16,9.60
2005,11,02,12,17,8.10
2005,11,02,12,18,6.40
2005,11,02,12,19,9.60
2005,11,02,12,20,11.30
2005,11,02,12,21,6.40
2005,11,02,12,22,11.30
2005,11,02,12,23,4.80
2005,11,02,12,24,6.40
2005,11,02,12,25,6.40
2005,11,02,12,26,14.50
2005,11,02,12,27,14.50
2005,11,02,12,28,9.60
2005,11,02,12,29,9.60
2005,11,02,12,30,6.40
2005,11,02,12,31,6.40
2005,11,02,12,32,3.20
2005,11,02,12,33,6.40
2005,11,02,12,34,4.80
2005,11,02,12,35,3.20
2005,11,02,12,36,6.40
2005,11,02,12,37,9.60
2005,11,02,12,38,16.10
2005,11,02,12,39,11.30
2005,11,02,12,40,12.90
2005,11,02,12,41,8.10
2005,11,02,12,42,9.60
2005,11,02,12,43,11.30
2005,11,02,12,44,8.10
2005,11,02,12,45,14.50
2005,11,02,12,46,12.90
2005,11,02,12,47,6.40
2005,11,02,12,48,8.10
2005,11,02,12,49,8.10
2005,11,02,12,50,6.40
2005,11,02,12,51,6.40
2005,11,02,12,52,9.60
2005,11,02,12,53,14.50
2005,11,02,12,54,8.10
2005,11,02,12,55,6.40
2005,11,02,12,56,11.30
2005,11,02,12,57,6.40
2005,11,02,12,58,6.40
2005,11,02,12,59,8.10
2005,11,02,13,00,11.30
2005,11,02,13,01,8.10
2005,11,02,13,02,8.10
2005,11,02,13,03,6.40
2005,11,02,13,04,11.30
2005,11,02,13,05,9.60
2005,11,02,13,06,9.60
2005,11,02,13,07,8.10
2005,11,02,13,08,9.60
2005,11,02,13,09,6.40
2005,11,02,13,10,8.10
2005,11,02,13,11,9.60
2005,11,02,13,12,4.80
2005,11,02,13,13,6.40
2005,11,02,13,14,4.80
2005,11,02,13,15,3.20
2005,11,02,13,16,8.10
2005,11,02,13,17,9.60
2005,11,02,13,18,6.40
2005,11,02,13,19,6.40
2005,11,02,13,20,8.10
2005,11,02,13,21,6.40
2005,11,02,13,22,6.40
2005,11,02,13,23,3.20
2005,11,02,13,24,6.40
2005,11,02,13,25,4.80
2005,11,02,13,26,8.10
2005,11,02,13,27,6.40
2005,11,02,13,28,4.80
2005,11,02,13,29,6.40
2005,11,02,13,30,4.80
2005,11,02,13,31,11.30
2005,11,02,13,32,8.10
2005,11,02,13,33,9.60
2005,11,02,13,34,8.10
2005,11,02,13,35,9.60
2005,11,02,13,36,9.60
2005,11,02,13,37,9.60
2005,11,02,13,38,14.50
2005,11,02,13,39,11.30
2005,11,02,13,40,6.40
2005,11,02,13,41,8.10
2005,11,02,13,42,9.60
2005,11,02,13,43,8.10
2005,11,02,13,44,11.30
2005,11,02,13,45,4.80
2005,11,02,13,46,11.30
2005,11,02,13,47,14.50
2005,11,02,13,48,9.60
2005,11,02,13,49,9.60
2005,11,02,13,50,8.10
2005,11,02,13,51,11.30
2005,11,02,13,52,9.60
2005,11,02,13,53,9.60
2005,11,02,13,54,11.30
2005,11,02,13,55,8.10
2005,11,02,13,56,6.40
2005,11,02,13,57,4.80
2005,11,02,13,58,3.20
2005,11,02,13,59,6.40
2005,11,02,14,00,9.60
2005,11,02,14,01,6.40
2005,11,02,14,02,3.20
2005,11,02,14,03,9.60
2005,11,02,14,04,8.10
2005,11,02,14,05,9.60
2005,11,02,14,06,8.10
2005,11,02,14,07,8.10
2005,11,02,14,08,6.40
2005,11,02,14,09,4.80
2005,11,02,14,10,6.40
2005,11,02,14,11,8.10
2005,11,02,14,12,8.10
2005,11,02,14,13,8.10
2005,11,02,14,14,6.40
2005,11,02,14,15,8.10
2005,11,02,14,16,8.10
2005,11,02,14,17,8.10
2005,11,02,14,18,6.40
2005,11,02,14,19,6.40
2005,11,02,14,20,8.10
2005,11,02,14,21,16.10
2005,11,02,14,22,11.30
2005,11,02,14,23,11.30
2005,11,02,14,24,9.60
2005,11,02,14,25,6.40
2005,11,02,14,26,6.40
2005,11,02,14,27,4.80
2005,11,02,14,28,8.10
2005,11,02,14,29,9.60
2005,11,02,14,30,9.60
2005,11,02,14,31,16.10
2005,11,02,14,32,14.50
2005,11,02,14,33,11.30
2005,11,02,14,34,14.50
2005,11,02,14,35,16.10
2005,11,02,14,36,9.60
2005,11,02,14,37,11.30
2005,11,02,14,38,8.10
2005,11,02,14,39,14.50
2005,11,02,14,40,9.60
2005,11,02,14,41,6.40
2005,11,02,14,42,11.30
2005,11,02,14,43,11.30
2005,11,02,14,44,11.30
2005,11,02,14,45,11.30
2005,11,02,14,46,11.30
2005,11,02,14,47,11.30
2005,11,02,14,48,9.60
2005,11,02,14,49,9.60
2005,11,02,14,50,8.10
2005,11,02,14,51,11.30
2005,11,02,14,52,9.60
2005,11,02,14,53,6.40
2005,11,02,14,54,8.10
2005,11,02,14,55,12.90
2005,11,02,14,56,11.30
2005,11,02,14,57,9.60
2005,11,02,14,58,11.30
2005,11,02,14,59,11.30
2005,11,02,15,00,11.30
2005,11,02,15,01,12.90
2005,11,02,15,02,12.90
2005,11,02,15,03,11.30
2005,11,02,15,04,9.60
2005,11,02,15,05,8.10
2005,11,02,15,06,6.40
2005,11,02,15,07,6.40
2005,11,02,15,08,9.60
2005,11,02,15,09,11.30
2005,11,02,15,10,9.60
2005,11,02,15,11,6.40
2005,11,02,15,12,8.10
2005,11,02,15,13,9.60
2005,11,02,15,14,8.10
2005,11,02,15,15,6.40
2005,11,02,15,16,8.10
2005,11,02,15,17,6.40
2005,11,02,15,18,6.40
2005,11,02,15,19,8.10
2005,11,02,15,20,8.10
2005,11,02,15,21,8.10
2005,11,02,15,22,8.10
2005,11,02,15,23,6.40
2005,11,02,15,24,6.40
2005,11,02,15,25,6.40
2005,11,02,15,26,6.40
2005,11,02,15,27,4.80
2005,11,02,15,28,6.40
2005,11,02,15,29,4.80
2005,11,02,15,30,4.80
2005,11,02,15,31,4.80
2005,11,02,15,32,4.80
2005,11,02,15,33,6.40
2005,11,02,15,34,6.40
2005,11,02,15,35,6.40
2005,11,02,15,36,4.80
2005,11,02,15,37,4.80
2005,11,02,15,38,4.80
2005,11,02,15,39,6.40
2005,11,02,15,40,4.80
2005,11,02,15,41,3.20
2005,11,02,15,42,1.60
2005,11,02,15,43,1.60
2005,11,02,15,44,0.00
2005,11,02,15,45,3.20
2005,11,02,15,46,3.20
2005,11,02,15,47,4.80
2005,11,02,15,48,3.20
2005,11,02,15,49,3.20
2005,11,02,15,50,3.20
2005,11,02,15,51,0.00
2005,11,02,15,52,0.00
2005,11,02,15,53,1.60
2005,11,02,15,54,1.60
2005,11,02,15,55,3.20
2005,11,02,15,56,3.20
2005,11,02,15,57,1.60
2005,11,02,15,58,1.60
2005,11,02,15,59,0.00
2005,11,02,16,00,0.00
2005,11,02,16,01,0.00
2005,11,02,16,02,0.00
2005,11,02,16,03,0.00
2005,11,02,16,04,0.00
2005,11,02,16,05,0.00
2005,11,02,16,06,0.00
2005,11,02,16,07,0.00
2005,11,02,16,08,0.00
2005,11,02,16,09,0.00
2005,11,02,16,10,0.00
2005,11,02,16,11,1.60
2005,11,02,16,12,1.60
2005,11,02,16,13,1.60
2005,11,02,16,14,0.00
2005,11,02,16,15,0.00
2005,11,02,16,16,0.00
2005,11,02,16,17,0.00
2005,11,02,16,18,0.00
2005,11,02,16,19,0.00
2005,11,02,16,20,1.60
2005,11,02,16,21,1.60
2005,11,02,16,22,1.60
2005,11,02,16,23,3.20
2005,11,02,16,24,1.60
2005,11,02,16,25,0.00
2005,11,02,16,26,1.60
2005,11,02,16,27,0.00
2005,11,02,16,28,0.00
2005,11,02,16,29,0.00
2005,11,02,16,30,0.00
2005,11,02,16,31,0.00
2005,11,02,16,32,0.00
2005,11,02,16,33,0.00
2005,11,02,16,34,0.00
2005,11,02,16,35,3.20
2005,11,02,16,36,4.80
2005,11,02,16,37,4.80
2005,11,02,16,38,6.40
2005,11,02,16,39,6.40
2005,11,02,16,40,4.80
2005,11,02,16,41,4.80
2005,11,02,16,42,4.80
2005,11,02,16,43,4.80
2005,11,02,16,44,4.80
2005,11,02,16,45,6.40
2005,11,02,16,46,4.80
2005,11,02,16,47,4.80
2005,11,02,16,48,8.10
2005,11,02,16,49,8.10
2005,11,02,16,50,6.40
2005,11,02,16,51,8.10
2005,11,02,16,52,8.10
2005,11,02,16,53,6.40
2005,11,02,16,54,4.80
2005,11,02,16,55,4.80
2005,11,02,16,56,4.80
2005,11,02,16,57,3.20
2005,11,02,16,58,3.20
2005,11,02,16,59,0.00
2005,11,02,17,00,4.80
2005,11,02,17,01,4.80
2005,11,02,17,02,4.80
2005,11,02,17,03,6.40
2005,11,02,17,04,8.10
2005,11,02,17,05,4.80
2005,11,02,17,06,1.60
2005,11,02,17,07,8.10
2005,11,02,17,08,6.40
2005,11,02,17,09,6.40
2005,11,02,17,10,11.30
2005,11,02,17,11,8.10
2005,11,02,17,12,9.60
2005,11,02,17,13,11.30
2005,11,02,17,14,19.30
2005,11,02,17,15,20.90
2005,11,02,17,16,12.90
2005,11,02,17,17,6.40
2005,11,02,17,18,14.50
2005,11,02,17,19,19.30
2005,11,02,17,20,16.10
2005,11,02,17,21,16.10
2005,11,02,17,22,14.50
2005,11,02,17,23,12.90
2005,11,02,17,24,9.60
2005,11,02,17,25,8.10
2005,11,02,17,26,8.10
2005,11,02,17,27,3.20
2005,11,02,17,28,6.40
2005,11,02,17,29,4.80
2005,11,02,17,30,6.40
2005,11,02,17,31,6.40
2005,11,02,17,32,11.30
2005,11,02,17,33,11.30
2005,11,02,17,34,11.30
2005,11,02,17,35,9.60
2005,11,02,17,36,6.40
2005,11,02,17,37,4.80
2005,11,02,17,38,9.60
2005,11,02,17,39,6.40
2005,11,02,17,40,4.80
2005,11,02,17,41,3.20
2005,11,02,17,42,4.80
2005,11,02,17,43,6.40
2005,11,02,17,44,8.10
2005,11,02,17,45,8.10
2005,11,02,17,46,6.40
2005,11,02,17,47,9.60
2005,11,02,17,48,4.80
2005,11,02,17,49,8.10
2005,11,02,17,50,6.40
2005,11,02,17,51,6.40
2005,11,02,17,52,4.80
2005,11,02,17,53,8.10
2005,11,02,17,54,6.40
2005,11,02,17,55,8.10
2005,11,02,17,56,8.10
2005,11,02,17,57,4.80
2005,11,02,17,58,3.20
2005,11,02,17,59,4.80